Zurück zum Katalog

STARLINK-35088

AktivKommunikationVLEO
NORAD 65344·PAYLOAD·🇺🇸 United States

Gestartet Aug 27, 2025 von Cape Canaveral Space Force Station

Loading…

Nächste Überflüge (nächste 24 Stunden)

TLE

AktuellSource: CelesTrak SupGP

Epoche: Sep 14, 2026, 15:48 UTC

1 65344C 25189X   26257.65881944 -.00065626  00000+0 -19391-2 0  2572
2 65344  53.1590  47.1897 0000850  92.1869 294.2380 15.34421888    14

Verfolge STARLINK-35088 in Echtzeit mit AllMySat

Download on the App Store